sat.trackr.live / text

‹ back to catalog

STARLINK-31715

NORAD 59384 · 2024-062L

PAYLOAD ACTIVE UNKNOWN

§ Identity

Operator
Country
US
Launch date
2024-04-02
Launch site
AFWTR
Launch vehicle
Mass (kg)
RCS (m²)

Purposes: comms

External: N2YO · Heavens-Above · Gunter

§ Orbital elements

Epoch: 2026-05-25T01:09:43.456032Z

Period
94.11 min
Inclination
53.1603°
Eccentricity
0.0001255
Mean motion
15.30194365 rev/d
Perigee alt
474.4 km
Apogee alt
476.1 km
Semi-major
6,853.4 km
B*
-3.0025e-5
RAAN
260.8899°
Arg perigee
90.3268°
Mean anomaly
269.7877°
Rev number
12,136

§ Raw data

STARLINK-317151 59384U 24062L   26145.04841963 -.00001248  00000+0 -30025-4 0  99962 59384  53.1603 260.8899 0001255  90.3268 269.7877 15.30194365121368

JSON: /api/v1/satellites/59384 · /tle

For live sub-satellite position, see the globe view (requires WebGL).

§ Visibility from observer

Set your observer location to see the next 7 days of passes ≥ 10°. The values pass through the URL so the page stays shareable.

No JS? Fill the form by hand. The geolocation button needs JavaScript.